Regional Weather Roundup
Issued by NWS Goodland, KS

Home | Current Version | Previous Version | Text Only | Print | Product List | Glossary On
Versions: 1 2 3 4 5 6 7 8 9 10 11 12 13 14 15 16 17 18 19 20 21 22 23 24 25 26 27 28 29 30 31 32 33 34 35 36 37 38 39 40 41 42 43 44 45 46 47 48 49 50
000
ASUS43 KGLD 210008
RWRGLD

GOODLAND FORECAST AREA HOURLY WEATHER ROUNDUP
NATIONAL WEATHER SERVICE GOODLAND KS
500 PM MST SAT DEC 20 2014

...OFFICIAL OBSERVATIONS...

CITY           SKY/WX    TMP DP  RH WIND       PRES   REMARKS
GOODLAND KS    PTCLDY    40  29  64 E6        29.97S
HILL CITY KS   CLOUDY    46  33  60 S5        29.99R
IMPERIAL NEB   MOCLDY    40  28  62 SW5       29.95S
MCCOOK NEB     MOCLDY    39  28  64 CALM      29.97S
AKRON CO       MOCLDY    38  24  57 E6        29.94F
BURLINGTON CO  PTCLDY    40  30  67 SE3       29.96S
LIMON CO       MOCLDY    36  16  44 CALM      29.94S
$$

...UNOFFICIAL OBSERVATIONS...

CITY           SKY/WX    TMP DP  RH WIND       PRES   REMARKS
COLBY KS       CLEAR     43  36  75 SW3       29.98S
GOVE KS          N/A     44  32  63 MISG        N/A
NORTON KS      CLEAR     43  27  52 CALM      29.97R
SHARON SPRINGS   N/A     39  30  70 S6          N/A
TRIBUNE KS     CLOUDY    41  36  81 CALM      29.99S
KIT CARSON CO    N/A     36  29  74 MISG        N/A
YUMA CO          N/A     35  28  75 SE5         N/A
$$



USA.gov is the U.S. government's official web portal to all federal, state and local government web resources and services.